Flag for United Kingdom Weather past 2 weeks in Sutton Coldfield, England, United Kingdom

Now
55 °F

Passing clouds.


Feels Like: 53 °F
Forecast: 56 / 65 °F
Wind: 8 mph from Southwest

Location: Birmingham / Airport

Current Time: Jul 6, 2015 at 8:12:00 AM

Latest Report: Jul 6, 2015 at 7:20 AM


Visibility: N/A

Pressure: 30.07 "Hg

Humidity: 94%

Dew point: 54 °F

Location of Sutton ColdfieldLocation

Historic Weather in Sutton Coldfield — Graph

°F

Sutton Coldfield temperature yesterday

Maximum temperature yesterday: 68 °F (at 12:20 PM)
Minimum temperature yesterday: 50 °F (at 5:20 AM)
Average temperature yesterday: 60 °F

Past Weeks' High & Low Weather Summary

 TemperatureHumidityPressure
High90 °F (Jul 1, 3:50 PM)100% (Jun 28, 4:20 AM)30.30 "Hg (Jun 28, 4:20 AM)
Low48 °F (Jul 3, 4:20 AM)35% (Jun 30, 2:50 PM)29.80 "Hg (Jun 22, 9:50 AM)
Average64 °F68%30.04 "Hg
* Reported Jun 21 6:20 AM — Jul 6 6:50 AM, Sutton Coldfield, Weather by CustomWeather, © 2015

Note: Actual official high and low records may vary slightly from our data, if they occured in-between our weather recording intervals... More about our weather records

Advertising

Sutton Coldfield weather history for previous 24 hours

 ConditionsComfort  
Time TempWeatherWind HumidityBarometerVisibility
6:50 AM
Mon, Jul 6
55 °FSunny.7 mph88%30.07 "Hg10 mi
6:20 AM52 °FSunny.3 mph94%30.07 "Hg10 mi
5:50 AM52 °FClear.No wind94%30.07 "Hg10 mi
5:20 AM52 °FClear.6 mph94%30.07 "Hg10 mi
4:20 AM50 °FClear.6 mph100%30.07 "Hg10 mi
3:50 AM50 °FClear.6 mph100%30.07 "Hg10 mi
3:20 AM50 °FClear.5 mph94%30.07 "Hg10 mi
2:50 AM50 °FClear.3 mph94%30.07 "Hg10 mi
2:20 AM52 °FClear.3 mph88%30.07 "Hg10 mi
1:50 AM55 °FPassing clouds.5 mph82%30.07 "HgN/A
1:20 AM55 °FPassing clouds.6 mph82%30.04 "HgN/A
12:50 AM55 °FCool.3 mph77%30.04 "HgN/A
12:20 AM57 °FClear.9 mph72%30.04 "Hg10 mi
11:50 PM
Sun, Jul 5
57 °FPassing clouds.9 mph72%30.04 "HgN/A
11:20 PM57 °FPassing clouds.6 mph72%30.04 "HgN/A
10:50 PM59 °FClear.9 mph68%30.04 "Hg10 mi
10:20 PM59 °FPassing clouds.5 mph72%30.01 "HgN/A
9:50 PM61 °FPassing clouds.6 mph68%30.01 "HgN/A
9:20 PM63 °FPassing clouds.8 mph64%30.01 "HgN/A
8:50 PM63 °FScattered clouds.6 mph73%29.98 "HgN/A
8:20 PM63 °FScattered clouds.6 mph73%29.98 "HgN/A
7:50 PM64 °FPassing clouds.7 mph64%29.98 "HgN/A
7:20 PM64 °FPassing clouds.7 mph64%29.98 "HgN/A
6:50 PM63 °FPassing clouds.8 mph68%29.98 "HgN/A
6:20 PM63 °FPassing clouds.6 mph68%29.98 "HgN/A
5:50 PM59 °FThundershowers. Scattered clouds.3 mph82%29.98 "HgN/A
5:20 PM57 °FThunderstorms. Scattered clouds.7 mph77%29.98 "HgN/A
4:50 PM66 °FScattered showers. Scattered clouds.10 mph56%29.98 "HgN/A
4:20 PM64 °FPassing clouds.9 mph64%29.98 "HgN/A
3:50 PM61 °FPassing clouds.8 mph77%29.98 "HgN/A
3:20 PM59 °FSprinkles. Scattered clouds.8 mph72%29.98 "HgN/A
2:50 PM63 °FScattered showers. Scattered clouds.14 mph56%29.98 "HgN/A
2:20 PM66 °FScattered showers. Scattered clouds.14 mph52%29.98 "HgN/A
1:50 PM68 °FScattered showers. Scattered clouds.12 mph53%29.98 "HgN/A
1:20 PM68 °FScattered clouds.8 mph53%29.98 "HgN/A
12:50 PM68 °FScattered clouds.9 mph53%29.98 "HgN/A
12:20 PM68 °FPassing clouds.7 mph56%29.98 "HgN/A
11:50 AM66 °FPassing clouds.8 mph60%30.01 "HgN/A
11:20 AM64 °FPassing clouds.7 mph64%30.01 "HgN/A
10:50 AM64 °FPassing clouds.7 mph64%30.04 "HgN/A
10:20 AM63 °FMild.8 mph68%30.01 "Hg4 mi
9:50 AM63 °FSunny.7 mph68%30.04 "Hg10 mi
9:20 AM63 °FPassing clouds.6 mph68%30.04 "HgN/A
8:50 AM59 °FSunny.3 mph77%30.04 "Hg10 mi
8:20 AM59 °FSunny.2 mph77%30.07 "Hg10 mi
Weather by CustomWeather, © 2015

See weather overviewHow to use our weather pages